TimeEDT,TemperatureF,Dew PointF,Humidity,Sea Level PressureIn,VisibilityMPH,Wind Direction,Wind SpeedMPH,Gust SpeedMPH,PrecipitationIn,Events,Conditions,WindDirDegrees,DateUTC
12:13 AM,42.8,39.2,87,29.93,10.0,NNW,15.0,24.2,N/A,,Overcast,330,2011-10-01 04:13:00
12:33 AM,42.8,41.0,93,29.93,10.0,NNW,18.4,24.2,N/A,,Drizzle,330,2011-10-01 04:33:00
12:54 AM,42.8,41.0,93,29.92,10.0,NW,16.1,20.7,N/A,,Light Drizzle,320,2011-10-01 04:54:00
1:14 AM,42.8,42.8,100,29.92,10.0,NNW,17.3,21.9,N/A,Rain,Light Rain,330,2011-10-01 05:14:00
1:34 AM,42.8,42.8,100,29.93,10.0,NNW,17.3,24.2,N/A,Rain,Light Rain,330,2011-10-01 05:34:00
1:49 AM,42.8,42.8,100,29.93,10.0,NW,15.0,23.0,N/A,Rain,Light Rain,320,2011-10-01 05:49:00
2:11 AM,42.8,42.8,100,29.93,10.0,NW,13.8,23.0,N/A,Rain,Light Rain,320,2011-10-01 06:11:00
2:31 AM,42.8,42.8,100,29.93,10.0,NW,16.1,20.7,N/A,Rain,Light Rain,310,2011-10-01 06:31:00
2:51 AM,42.8,42.8,100,29.93,10.0,NW,15.0,21.9,N/A,,Light Drizzle,310,2011-10-01 06:51:00
3:11 AM,42.8,42.8,100,29.92,10.0,NW,15.0,23.0,N/A,,Overcast,320,2011-10-01 07:11:00
3:32 AM,42.8,42.8,100,29.92,5.0,NW,15.0,23.0,N/A,,Overcast,310,2011-10-01 07:32:00
3:52 AM,42.8,42.8,100,29.93,5.0,NW,12.7,19.6,N/A,,Drizzle,310,2011-10-01 07:52:00
4:12 AM,42.8,42.8,100,29.93,7.0,NW,13.8,20.7,N/A,,Drizzle,320,2011-10-01 08:12:00
4:32 AM,42.8,42.8,100,29.94,10.0,NNW,12.7,21.9,N/A,,Drizzle,330,2011-10-01 08:32:00
4:52 AM,44.6,44.6,100,29.95,10.0,NNW,12.7,17.3,N/A,Rain,Light Rain,330,2011-10-01 08:52:00
5:12 AM,44.6,44.6,100,29.95,10.0,NNW,15.0,21.9,N/A,,Drizzle,330,2011-10-01 09:12:00
5:32 AM,44.6,44.6,100,29.95,10.0,NNW,12.7,21.9,N/A,,Drizzle,330,2011-10-01 09:32:00
5:52 AM,44.6,44.6,100,29.96,7.0,NNW,10.4,19.6,N/A,Rain,Light Rain,330,2011-10-01 09:52:00
6:12 AM,44.6,44.6,100,29.97,10.0,NNW,11.5,-,N/A,,Drizzle,330,2011-10-01 10:12:00
6:32 AM,44.6,44.6,100,29.97,10.0,NNW,9.2,18.4,N/A,,Drizzle,340,2011-10-01 10:32:00
6:53 AM,46.4,46.4,100,29.98,7.0,NNW,11.5,-,N/A,,Overcast,330,2011-10-01 10:53:00
7:13 AM,46.4,46.4,100,29.99,7.0,North,11.5,16.1,N/A,,Overcast,350,2011-10-01 11:13:00
7:33 AM,46.4,46.4,100,30.00,10.0,North,15.0,19.6,N/A,,Overcast,350,2011-10-01 11:33:00
7:53 AM,46.4,46.4,100,30.01,10.0,North,13.8,24.2,N/A,,Overcast,350,2011-10-01 11:53:00
8:13 AM,46.4,46.4,100,30.02,10.0,North,16.1,28.8,N/A,,Overcast,360,2011-10-01 12:13:00
8:33 AM,46.4,46.4,100,30.03,10.0,North,13.8,21.9,N/A,,Overcast,360,2011-10-01 12:33:00
8:53 AM,46.4,46.4,100,30.04,10.0,North,12.7,26.5,N/A,,Overcast,360,2011-10-01 12:53:00
9:13 AM,48.2,44.6,87,30.05,10.0,North,18.4,25.3,N/A,,Overcast,350,2011-10-01 13:13:00
9:33 AM,48.2,44.6,87,30.06,10.0,North,13.8,25.3,N/A,,Overcast,360,2011-10-01 13:33:00
9:54 AM,48.2,44.6,87,30.07,10.0,North,16.1,24.2,N/A,,Overcast,360,2011-10-01 13:54:00
10:14 AM,48.2,42.8,82,30.08,10.0,North,13.8,24.2,N/A,,Overcast,10,2011-10-01 14:14:00
10:34 AM,48.2,42.8,82,30.08,10.0,North,17.3,27.6,N/A,,Overcast,10,2011-10-01 14:34:00
10:54 AM,48.2,41.0,76,30.09,10.0,North,17.3,26.5,N/A,,Overcast,10,2011-10-01 14:54:00
11:14 AM,48.2,39.2,71,30.09,10.0,North,13.8,32.2,N/A,,Overcast,360,2011-10-01 15:14:00
11:34 AM,48.2,39.2,71,30.10,10.0,NNE,16.1,26.5,N/A,,Overcast,20,2011-10-01 15:34:00
11:54 AM,50.0,39.2,66,30.10,10.0,North,20.7,28.8,N/A,,Overcast,10,2011-10-01 15:54:00
12:14 PM,51.8,39.2,62,30.10,10.0,North,18.4,24.2,N/A,,Overcast,10,2011-10-01 16:14:00
12:34 PM,51.8,39.2,62,30.11,10.0,North,17.3,25.3,N/A,,Overcast,10,2011-10-01 16:34:00
12:54 PM,51.8,37.4,58,30.11,10.0,North,15.0,26.5,N/A,,Mostly Cloudy,10,2011-10-01 16:54:00
1:15 PM,53.6,37.4,54,30.11,10.0,North,13.8,24.2,N/A,,Overcast,10,2011-10-01 17:15:00
1:35 PM,53.6,37.4,54,30.11,10.0,North,13.8,27.6,N/A,,Overcast,10,2011-10-01 17:35:00
1:55 PM,53.6,37.4,54,30.10,10.0,North,13.8,24.2,N/A,,Mostly Cloudy,350,2011-10-01 17:55:00
2:15 PM,55.4,37.4,51,30.10,10.0,NNW,17.3,25.3,N/A,,Mostly Cloudy,330,2011-10-01 18:15:00
2:35 PM,55.4,37.4,51,30.10,10.0,North,17.3,28.8,N/A,,Scattered Clouds,350,2011-10-01 18:35:00
2:55 PM,55.4,35.6,47,30.10,10.0,North,16.1,27.6,N/A,,Mostly Cloudy,350,2011-10-01 18:55:00
3:10 PM,55.4,35.6,47,30.11,10.0,North,12.7,21.9,N/A,,Scattered Clouds,350,2011-10-01 19:10:00
3:30 PM,55.4,35.6,47,30.11,10.0,North,17.3,27.6,N/A,,Scattered Clouds,350,2011-10-01 19:30:00
3:50 PM,55.4,35.6,47,30.11,10.0,North,11.5,20.7,N/A,,Scattered Clouds,360,2011-10-01 19:50:00
4:11 PM,55.4,37.4,51,30.11,10.0,North,17.3,-,N/A,,Scattered Clouds,350,2011-10-01 20:11:00
4:31 PM,55.4,35.6,47,30.11,10.0,North,19.6,26.5,N/A,,Scattered Clouds,360,2011-10-01 20:31:00
4:51 PM,55.4,35.6,47,30.12,10.0,NNW,15.0,21.9,N/A,,Scattered Clouds,340,2011-10-01 20:51:00
5:11 PM,55.4,35.6,47,30.12,10.0,NNW,15.0,20.7,N/A,,Mostly Cloudy,340,2011-10-01 21:11:00
5:31 PM,53.6,35.6,51,30.13,10.0,North,13.8,20.7,N/A,,Mostly Cloudy,360,2011-10-01 21:31:00
5:53 PM,53.6,35.6,51,30.13,10.0,North,15.0,20.7,N/A,,Mostly Cloudy,360,2011-10-01 21:53:00
6:13 PM,51.8,35.6,54,30.14,10.0,North,13.8,-,N/A,,Mostly Cloudy,350,2011-10-01 22:13:00
6:34 PM,51.8,35.6,54,30.14,10.0,North,12.7,20.7,N/A,,Mostly Cloudy,350,2011-10-01 22:34:00
7:14 PM,48.2,35.6,62,30.15,10.0,North,10.4,-,N/A,,Scattered Clouds,350,2011-10-01 23:14:00
7:54 PM,46.4,35.6,66,30.16,10.0,North,6.9,-,N/A,,Clear,350,2011-10-01 23:54:00
8:14 PM,44.6,37.4,76,30.16,10.0,NNW,5.8,-,N/A,,Clear,340,2011-10-02 00:14:00
8:34 PM,44.6,37.4,76,30.17,10.0,NNW,5.8,-,N/A,,Clear,340,2011-10-02 00:34:00
8:54 PM,42.8,37.4,81,30.17,10.0,Calm,Calm,-,N/A,,Clear,0,2011-10-02 00:54:00
9:14 PM,42.8,37.4,81,30.17,10.0,North,3.5,-,N/A,,Clear,350,2011-10-02 01:14:00
9:35 PM,42.8,37.4,81,30.17,10.0,NNW,8.1,-,N/A,,Clear,330,2011-10-02 01:35:00
9:55 PM,42.8,37.4,81,30.16,10.0,NNW,5.8,-,N/A,,Clear,330,2011-10-02 01:55:00
10:15 PM,42.8,37.4,81,30.16,10.0,NW,5.8,-,N/A,,Clear,320,2011-10-02 02:15:00
10:35 PM,42.8,37.4,81,30.16,10.0,NW,5.8,-,N/A,,Clear,320,2011-10-02 02:35:00
10:55 PM,42.8,37.4,81,30.16,10.0,NW,5.8,-,N/A,,Clear,320,2011-10-02 02:55:00
11:15 PM,42.8,37.4,81,30.16,10.0,NW,5.8,-,N/A,,Clear,320,2011-10-02 03:15:00
11:35 PM,41.0,39.2,93,30.16,10.0,Calm,Calm,-,N/A,,Clear,0,2011-10-02 03:35:00
11:55 PM,41.0,39.2,93,30.16,10.0,NNW,3.5,-,N/A,,Clear,330,2011-10-02 03:55:00